Flag for Colombia Weather past 2 weeks in Barranquilla, Colombia

Now
79 °F

Passing clouds.


Feels Like: 83 °F
Forecast: 81 / 89 °F
Wind: 5 mph from North

Location: Barranquilla / Ernestocortissoz

Current Time: Sep 19, 2014 at 3:50:51 AM

Latest Report: Sep 19, 2014 at 3:00 AM


Visibility: N/A

Pressure: 29.81 "Hg

Humidity: 94%

Dew point: 77 °F

Location of BarranquillaLocation

Historic Weather in Barranquilla — Graph

°F

Barranquilla temperature yesterday

Maximum temperature yesterday: 91 °F (at 2:00 PM)
Minimum temperature yesterday: 73 °F (at 5:00 PM)
Average temperature yesterday: 80 °F

Past Weeks' High & Low Weather Summary

 TemperatureHumidityPressure
High95 °F (Sep 5, 1:00 PM)100% (Sep 4, 2:00 AM)29.97 "Hg (Sep 4, 2:00 AM)
Low73 °F (Sep 15, 5:00 AM)60% (Sep 5, 1:00 PM)29.72 "Hg (Sep 7, 4:00 PM)
Average82 °F88%29.83 "Hg
* Reported Sep 4 2:00 AM — Sep 19 2:00 AM, Barranquilla, Weather by CustomWeather, © 2014

Note: Actual official high and low records may vary slightly from our data, if they occured in-between our weather recording intervals... More about our weather records

Advertising

Barranquilla weather history for previous 24 hours

 ConditionsComfort  
Time TempWeatherWind HumidityBarometerVisibility
2:00 AM
Sep 19
81 °FPassing clouds.6 mph94%29.82 "HgN/A
1:00 AM79 °FPassing clouds.8 mph100%29.85 "HgN/A
12:00 AM77 °FPassing clouds.6 mph100%29.87 "HgN/A
11:00 PM
Sep 18
77 °FPassing clouds.6 mph100%29.88 "HgN/A
10:00 PM75 °FPassing clouds.5 mph100%29.88 "HgN/A
9:00 PM75 °FPassing clouds.3 mph100%29.87 "HgN/A
8:00 PM73 °FPassing clouds.5 mph100%29.85 "HgN/A
7:00 PM75 °FPartly cloudy.5 mph100%29.85 "HgN/A
6:00 PM73 °FPassing clouds.No wind100%29.85 "HgN/A
5:00 PM73 °FThunderstorms. Broken clouds.3 mph100%29.84 "Hg4 mi
4:00 PM75 °FStrong thunderstorms. Broken clouds.17 mph100%29.81 "Hg1 mi
3:00 PM91 °FScattered showers. Scattered clouds.5 mph63%29.81 "Hg5 mi
2:00 PM91 °FScattered clouds.14 mph67%29.82 "HgN/A
1:00 PM90 °FScattered clouds.9 mph71%29.86 "HgN/A
12:00 PM90 °FScattered clouds.9 mph71%29.88 "HgN/A
11:00 AM88 °FScattered clouds.12 mph75%29.91 "HgN/A
10:00 AM84 °FScattered clouds.9 mph89%29.92 "HgN/A
9:00 AM82 °FFog.6 mph94%29.93 "Hg4 mi
8:00 AM79 °FFog.N/A100%29.90 "Hg3 mi
7:00 AM79 °FFog.3 mph100%29.88 "Hg2 mi
6:00 AM79 °FFog.6 mph94%29.86 "Hg2 mi
5:00 AM81 °FPassing clouds.5 mph94%29.83 "Hg4 mi
4:00 AM81 °FPassing clouds.5 mph94%29.82 "HgN/A
Weather by CustomWeather, © 2014

See weather overviewHow to use our weather pages